www.pogodaiklimat.ru

Погода и климат >> Архив погоды >> Россия >> Якутия >> Депутатский


ПОГОДА в Депутатском

  • Прогноз погоды в Депутатском
  • Монитор погоды в Депутатском

АРХИВ ПОГОДЫ в Депутатском

Время (UTC), дата Ветер
(напр.,м/с)
 
Видим.   Явления Облачность Т
(С)
Тd
(С)
f
(%)
Тe
(С)
Тes
(С)
Комфортность P
(гПа)
Po
(гПа)
Тmin
(С)
Tmax
(С)
R
(мм)
R24
(мм)
S
(см)
18 16.01 штиль 0 20 км ясно -48.0 -51.1 70 -48 -48 опасность
обморожения
1036.6 992.9
21 16.01 ЮЗ 1 20 км ясно -48.0 -51.1 70 -54 -54 опасность
обморожения
1036.0 992.3 -48.3 23
00 17.01 З 1 20 км ясно -48.4 -51.1 73 -55 -55 опасность
обморожения
1035.1 991.5 -48.7
03 17.01 З 1 20 км ясно -47.8 -51.1 68 -54 -54 опасность
обморожения
1034.0 990.4
06 17.01 З 1 20 км ясно -48.0 -51.1 70 -54 -54 опасность
обморожения
1033.2 989.6
09 17.01 З 1 20 км ясно -49.1 -52.2 70 -55 -55 опасность
обморожения
1033.2 989.4 -47.8
12 17.01 З 1 20 км ясно -49.4 -52.2 72 -56 -56 опасность
обморожения
1032.4 988.6
15 17.01 ЮЗ 1 20 км ясно -49.8 -52.2 76 -56 -56 опасность
обморожения
1031.5 987.6
18 17.01 ЮЗ 1 20 км ясно -50.2 -53.5 68 -57 -57 опасность
обморожения
1031.2 987.3
21 17.01 З 1 20 км ясно -51.0 -53.5 74 -57 -57 опасность
обморожения
1031.4 987.3 -51.4 23
00 18.01 штиль 0 10 км ясно -50.8 -53.5 73 -51 -51 опасность
обморожения
1031.4 987.3
03 18.01 З 1 10 км ясно -50.6 -53.5 71 -57 -57 опасность
обморожения
1031.3 987.2
06 18.01 З 1 10 км ясно -50.4 -53.5 69 -57 -57 опасность
обморожения
1031.1 987.2
09 18.01 штиль 0 20 км ясно -50.5 -53.5 70 -51 -51 опасность
обморожения
1031.8 987.7 -50.4
12 18.01 З 1 20 км ясно -51.3 -55.1 64 -58 -58 опасность
обморожения
1032.1 988.0
15 18.01 штиль 0 20 км ясно -50.7 -53.5 72 -51 -51 опасность
обморожения
1031.8 987.9
18 18.01 З 1 4000 м дымка ясно -49.8 -52.2 76 -56 -56 опасность
обморожения
1031.4 987.5
21 18.01 ЮЗ 1 20 км ясно -48.8 -52.2 67 -55 -55 опасность
обморожения
1031.1 987.4 -51.5 23
00 19.01 штиль 0 20 км ясно -49.0 -52.2 69 -49 -49 опасность
обморожения
1031.2 987.5
03 19.01 ЮЗ 1 20 км ясно -48.7 -52.2 67 -55 -55 опасность
обморожения
1030.4 986.7
06 19.01 З 1 20 км ясно -49.1 -52.2 70 -55 -55 опасность
обморожения
1030.1 986.4
09 19.01 штиль 0 20 км ясно -49.4 -52.2 72 -49 -49 опасность
обморожения
1029.9 986.2 -48.7
12 19.01 З 1 20 км ясно -49.4 -52.2 72 -56 -56 опасность
обморожения
1029.5 985.8
15 19.01 З 1 20 км ясно -50.0 -53.5 66 -56 -56 опасность
обморожения
1028.7 985.0
18 19.01 З 1 20 км ясно -49.9 -53.5 66 -56 -56 опасность
обморожения
1027.7 984.0
21 19.01 штиль 0 20 км ясно -50.0 -53.5 66 -50 -50 опасность
обморожения
1027.1 983.4 -50.7 23
00 20.01 штиль 0 10 км ясно -49.8 -52.2 76 -50 -50 опасность
обморожения
1026.5 982.8
03 20.01 штиль 0 10 км ясно -49.5 -52.2 73 -50 -50 опасность
обморожения
1025.5 981.9
06 20.01 штиль 0 20 км ясно -49.5 -52.2 73 -50 -50 опасность
обморожения
1025.0 981.4
09 20.01 ЮЗ 1 20 км ясно -48.9 -52.2 68 -55 -55 опасность
обморожения
1024.1 980.7 -48.9
12 20.01 штиль 0 20 км ясно -49.4 -52.2 72 -49 -49 опасность
обморожения
1023.9 980.5
15 20.01 З 1 20 км ясно -49.1 -52.2 70 -55 -55 опасность
обморожения
1022.9 979.5
18 20.01 З 1 20 км ясно -48.4 -51.1 73 -55 -55 опасность
обморожения
1022.4 979.3
21 20.01 З 1 20 км ясно -48.2 -51.1 72 -54 -54 опасность
обморожения
1022.3 979.2 -49.6 23
00 21.01 З 1 4000 м дымка ясно -47.5 -50.5 71 -54 -54 опасность
обморожения
1022.6 979.5
03 21.01 З 1 4000 м дымка ясно -47.6 -50.5 72 -54 -54 опасность
обморожения
1022.9 979.7
06 21.01 З 1 20 км ясно -47.9 -51.1 69 -54 -54 опасность
обморожения
1023.5 980.3
09 21.01 З 1 20 км ясно -47.8 -51.1 68 -54 -54 опасность
обморожения
1024.7 981.5 -47.5
12 21.01 З 1 20 км ясно -47.0 -50.1 70 -53 -53 опасность
обморожения
1025.3 982.3
15 21.01 З 1 20 км 3/0
[Ac trans]
-45.5 -47.6 79 -51 -51 опасность
обморожения
1025.1 982.3
18 21.01 ЮЗ 1 20 км 8/0
[Ac trans]
-40.7 -42.6 82 -46 -46 опасность
обморожения
1025.1 983.1
21 21.01 З 1 20 км 8/0
[Ac trans]
-37.5 -39.9 78 -42 -42 опасность
обморожения
1026.4 984.9 -48.1 23
00 22.01 ЮЗ 1 20 км ясно -37.3 -40.1 75 -42 -42 опасность
обморожения
1027.6 986.2
03 22.01 З 2 20 км ясно -36.8 -39.7 74 -45 -45 опасность
обморожения
1029.1 987.7
06 22.01 СЗ 1 20 км 3/0
[Ac trans]
-37.1 -40.1 73 -42 -42 опасность
обморожения
1032.0 990.5
09 22.01 штиль 0 20 км 4/0
[Ac trans]
-38.4 -41.3 74 -38 -38 опасность
обморожения
1033.4 991.6 -36.8
12 22.01 штиль 0 20 км 4/0
[Ac trans]
-39.0 -41.7 75 -39 -39 опасность
обморожения
1034.9 992.9
15 22.01 З 1 20 км ясно -38.9 -41.7 75 -44 -44 опасность
обморожения
1035.2 993.2
18 22.01 штиль 0 20 км ясно -39.6 -42.2 76 -40 -40 опасность
обморожения
1035.7 993.5
21 22.01 штиль 0 20 км 3/0
[Ac trans]
-38.9 -41.7 75 -39 -39 опасность
обморожения
1035.7 993.7 -39.8 23
00 23.01 З 1 20 км ясно -39.5 -42.2 75 -45 -45 опасность
обморожения
1035.9 993.7
03 23.01 ЮЗ 1 20 км ясно -38.6 -41.3 75 -44 -44 опасность
обморожения
1035.5 993.5
06 23.01 З 1 20 км ясно -38.5 -41.3 75 -44 -44 опасность
обморожения
1035.5 993.5
09 23.01 ЮЗ 1 20 км ясно -37.8 -40.5 76 -43 -43 опасность
обморожения
1035.4 993.6 -37.8
12 23.01 штиль 0 20 км ясно -37.4 -40.1 76 -37 -37 опасность
обморожения
1035.0 993.3

 

Местоположение метеостанции Депутатский (Якутия, Россия): широта 69.38 долгота 139.80 высота над уровнем моря 284 м.

В архиве по умолчанию представлена погода в Депутатском за последнюю неделю. Архивные данные за месяц целиком и за предыдущие месяцы, начиная с января 2011 года, Вы можете получить, выбрав интересующий диапазон дат из раскрывающегося списка и нажав кнопку "Ввод!".


*Определитесь, кто Вы:
робот инопланетянин человек

Внимание! Время в таблицах - всемирное. Для получения местного времени необходимо прибавить поправку, которая равна 10 ч.

Смотрите также архив погоды в соседних городах и на ближайших метеорологических станциях:

Погода в Усть-Куйге (Якутия, Россия) (176 км)
Погода в Юбилейной (Якутия, Россия) (206 км)
Погода в Белой Горе (Якутия, Россия) (272 км)
Погода в Батагае (Якутия, Россия) (286 км)
Погода в Усть-Чарках (Якутия, Россия) (316 км)
Погода в Верхоянске (Якутия, Россия) (329 км)
Погода в Чокурдахе (Якутия, Россия) (334 км)
Погода в Усть-Моме (Якутия, Россия) (355 км)
Погода в Батагай-Алыте (Якутия, Россия) (421 км)
Погода на Мысе Кигилях (Якутия, Россия) (439 км)

Пояснения к столбцам:

Ветер - указаны скорость ветра в м/с - средняя за 10 мин, порывы в срок и между сроками (в фигурных скобках) и направление, откуда дует ветер: С - северный, СВ - северо-восточный, В - восточный, ЮВ - юго-восточный, Ю - южный, ЮЗ - юго-западный, З - западный, СЗ - северо-западный.
Видимость - горизонтальная дальность видимости в метрах или километрах. При видимости от 1 до 10 км при отсутствии осадков обычно наблюдается дымка, при ухудшении видимости до 1 км и менее - туман. В сухую погоду видимость может ухудшаться дымом, пылью или мглою.
Явления - указаны атмосферные явления, наблюдавшиеся в срок или в последний час перед сроком; фигурными скобками обозначены явления, наблюдавшиеся между сроками (за 1-3 часа до срока); квадратными скобками обозначены град или гололедные отложения с указанием их диаметра в мм.
Облачность - указаны через наклонную черту общая и нижняя облачность в баллах и высота нижней границы облаков в метрах; квадратными скобками обозначены формы облаков: Ci - перистые, Cs - перисто-слоистые, Cc - перисто-кучевые, Ac - высококучевые, As - высокослоистые, Sc - слоисто-кучевые, Ns - слоисто-дождевые, Cu - кучевые, Cb - кучево-дождевые. Подробнее классификацию облаков см. в Атласе облаков (PDF).
T - Температура воздуха - температура, измеренная на высоте 2 м над землей.
Td - Температура точки росы - температура, при понижении до которой содержащийся в воздухе водяной пар достигнет насыщения.
f - Относительная влажность воздуха - влажноcть воздуха, измеренная на высоте 2 м над землей.
Te - Эффективная температура - температура, которую ощущает одетый по сезону человек в тени. Характеристика душности погоды. При расчете учитывается влияние влажности воздуха и скорости ветра на теплоощущения человека.
Tes - Эффективная температура на солнце - температура, которую ощущает человек, с поправкой на солнечный нагрев. Характеристика знойности погоды. Зависит от высоты солнца над горизонтом, облачности и скорости ветра. Ночью, в пасмурную погоду, а также при ветре 12 м/с и более поправка равна нулю.
P - Атмосферное давление - приведенное к уровню моря атмосферное давление.
Po - Атмосферное давление - измеренное на уровне метеостанции атмосферное давление.
Tmin - Минимальная температура - минимум температуры воздуха на высоте 2 м над землей.
Tmax - Максимальная температура - максимум температуры воздуха на высоте 2 м над землей.
R - Количество осадков - Количество выпавших осадков за период времени, мм. При наведении курсора мыши на число - период времени, за который выпало указанное количество осадков.
R24 - Количество осадков - Количество выпавших осадков за 24 часа, мм.
S - Снежный покров - Высота снежного покрова, см. При наведении курсора мыши на число - состояние снежного покрова и степень покрытия местности в баллах.